Date String (YYYY-MM-DD hh:mm:ss) UTC,Instrument flags,Ambient pressure (hPa),Sample flow (lpm),Bypass flow (lpm),Sample temperature (°C),Ambient temperature (°C),ASC tube jacket temperature (°C),LED temperature (°C),Box temperature (°C),Sample RH (%),Span deviation,Mass concentration (μg/m³),Mass concentration (μg/m³),Mass concentration (μg/m³)
DateTimeUTC,F1_M11,P_M11,Q1_M11,Q2_M11,T1_M11,T2_M11,T3_M11,T4_M11,T5_M11,U1_M11,ZSPAN_M11,X0_M11,X2_M11,X1_M11
2022-04-13 18:00:00,,0818.9,4.99,0.00,21.8,20.9,00.0,31.0,23.3,05.4,0000.0,0003.58,0001.19,0000.69
2022-04-13 18:01:00,,0819.0,4.99,0.00,21.9,21.9,00.0,31.0,23.7,05.3,0000.0,0003.69,0001.17,0000.69
2022-04-13 18:02:00,,0818.9,5.01,0.00,22.1,22.9,00.0,31.1,24.1,05.3,0000.0,0003.69,0001.17,0000.69
2022-04-13 18:03:00,,0819.1,5.02,0.00,22.2,23.4,00.0,31.1,24.3,05.3,0000.0,0003.74,0001.21,0000.70
2022-04-13 18:04:00,,0819.1,4.98,0.00,22.3,23.0,00.0,31.1,24.2,05.3,0000.0,0003.78,0001.23,0000.71
2022-04-13 18:05:00,,0819.2,5.01,0.00,22.2,22.6,00.0,31.1,24.1,05.5,0000.0,0004.12,0001.28,0000.72
2022-04-13 18:06:00,,0819.3,5.00,0.00,22.2,22.3,00.0,31.1,24.0,05.8,0000.0,0004.47,0001.30,0000.71
2022-04-13 18:07:00,,0819.0,5.01,0.00,22.2,22.1,00.0,31.1,24.0,05.9,0000.0,0004.53,0001.30,0000.72
2022-04-13 18:08:00,,0819.0,4.99,0.00,22.2,21.8,00.0,31.1,23.9,05.7,0000.0,0004.90,0001.31,0000.72
2022-04-13 18:09:00,,0818.9,4.99,0.00,22.1,21.6,00.0,31.1,23.8,05.6,0000.0,0004.82,0001.34,0000.74
2022-04-13 18:10:00,,0818.9,5.00,0.00,22.1,21.5,00.0,31.1,23.8,05.7,0000.0,0004.97,0001.39,0000.74
2022-04-13 18:11:00,,0818.9,5.01,0.00,22.1,21.3,00.0,31.1,23.8,05.9,0000.0,0004.90,0001.42,0000.75
2022-04-13 18:12:00,,0818.9,5.00,0.00,22.1,21.2,00.0,31.1,23.7,06.0,0000.0,0004.83,0001.46,0000.76
2022-04-13 18:13:00,,0818.9,4.99,0.00,22.0,21.1,00.0,31.1,23.6,05.9,0000.0,0005.27,0001.46,0000.78
2022-04-13 18:14:00,,0818.9,5.00,0.00,22.0,21.1,00.0,31.1,23.6,05.8,0000.0,0005.53,0001.45,0000.78
2022-04-13 18:15:00,,0819.0,5.00,0.00,22.0,21.0,00.0,31.1,23.6,06.5,0000.0,0005.81,0001.49,0000.78
2022-04-13 18:16:00,,0818.9,5.00,0.00,22.0,21.0,00.0,31.1,23.6,06.6,0000.0,0006.09,0001.46,0000.78
2022-04-13 18:17:00,,0819.0,5.00,0.00,21.9,20.8,00.0,31.0,23.5,06.4,0000.0,0005.26,0001.43,0000.79
2022-04-13 18:18:00,,0818.9,5.02,0.00,21.8,20.7,00.0,31.0,23.4,06.4,0000.0,0005.27,0001.43,0000.80
2022-04-13 18:19:00,,0818.9,5.00,0.00,21.7,20.6,00.0,31.0,23.3,06.3,0000.0,0004.58,0001.38,0000.80
2022-04-13 18:20:00,,0818.9,4.99,0.00,21.7,20.6,00.0,30.9,23.2,06.1,0000.0,0004.60,0001.34,0000.78
2022-04-13 18:21:00,,0818.8,4.99,0.00,21.7,20.6,00.0,30.9,23.2,06.2,0000.0,0004.42,0001.32,0000.79
2022-04-13 18:22:00,,0818.9,4.99,0.00,21.6,20.5,00.0,30.9,23.2,05.7,0000.0,0004.32,0001.34,0000.80
2022-04-13 18:23:00,,0818.8,4.99,0.00,21.6,20.5,00.0,30.8,23.2,06.0,0000.0,0004.27,0001.32,0000.81
2022-04-13 18:24:00,,0818.8,5.02,0.00,21.5,20.4,00.0,30.8,23.1,06.1,0000.0,0004.21,0001.32,0000.81
2022-04-13 18:25:00,,0818.8,5.01,0.00,21.5,20.5,00.0,30.8,23.0,05.9,0000.0,0003.68,0001.31,0000.80
2022-04-13 18:26:00,,0818.8,4.99,0.00,21.6,21.5,00.0,30.8,23.3,06.1,0000.0,0003.61,0001.27,0000.80
2022-04-13 18:27:00,,0818.8,5.01,0.00,21.7,22.7,00.0,30.8,23.7,05.9,0000.0,0004.24,0001.24,0000.79
2022-04-13 18:28:00,,0818.8,4.99,0.00,21.9,23.3,00.0,30.9,24.0,06.2,0000.0,0004.65,0001.26,0000.79
2022-04-13 18:29:00,,0818.9,5.00,0.00,22.0,22.9,00.0,30.9,23.9,06.1,0000.0,0005.35,0001.27,0000.80
2022-04-13 18:30:00,,0818.7,4.99,0.00,21.9,22.4,00.0,30.9,23.7,06.2,0000.0,0005.74,0001.31,0000.80
2022-04-13 18:31:00,,0818.8,4.99,0.00,21.9,22.0,00.0,30.9,23.6,06.4,0000.0,0006.20,0001.33,0000.82
2022-04-13 18:32:00,,0818.8,5.01,0.00,21.9,21.8,00.0,30.9,23.6,06.7,0000.0,0006.61,0001.34,0000.82
2022-04-13 18:33:00,,0818.7,5.02,0.00,21.8,21.6,00.0,30.9,23.6,06.0,0000.0,0006.37,0001.30,0000.82
2022-04-13 18:34:00,,0818.4,5.00,0.00,21.8,21.4,00.0,30.9,23.5,04.8,0000.0,0006.61,0001.29,0000.81
2022-04-13 18:35:00,,0818.4,5.00,0.00,21.8,21.3,00.0,30.9,23.5,04.2,0000.0,0007.24,0001.29,0000.82
2022-04-13 18:36:00,,0818.4,5.00,0.00,21.8,21.2,00.0,30.8,23.6,04.1,0000.0,0007.38,0001.36,0000.83
2022-04-13 18:37:00,,0818.5,5.01,0.00,21.9,21.1,00.0,30.8,23.6,04.1,0000.0,0007.46,0001.43,0000.83
2022-04-13 18:38:00,,0818.5,5.00,0.00,21.8,21.0,00.0,30.8,23.5,03.9,0000.0,0006.28,0001.45,0000.85
2022-04-13 18:39:00,,0818.5,4.99,0.00,21.8,21.0,00.0,30.8,23.5,04.0,0000.0,0005.81,0001.45,0000.85
2022-04-13 18:40:00,,0818.1,5.00,0.00,21.8,20.9,00.0,30.8,23.5,04.0,0000.0,0005.31,0001.47,0000.85
2022-04-13 18:41:00,,0818.5,4.99,0.00,21.8,20.8,00.0,30.8,23.5,03.8,0000.0,0006.18,0001.48,0000.86
2022-04-13 18:42:00,,0818.5,5.00,0.00,21.8,20.8,00.0,30.8,23.5,03.8,0000.0,0007.91,0001.53,0000.86
2022-04-13 18:43:00,,0818.4,5.01,0.00,21.8,20.8,00.0,30.8,23.4,03.7,0000.0,0007.59,0001.52,0000.87
2022-04-13 18:44:00,,0818.4,5.01,0.00,21.7,20.7,00.0,30.8,23.4,03.7,0000.0,0007.51,0001.47,0000.86
2022-04-13 18:45:00,,0818.3,4.99,0.00,21.7,20.7,00.0,30.8,23.4,03.8,0000.0,0007.54,0001.51,0000.87
2022-04-13 18:46:00,,0818.3,5.00,0.00,21.7,20.7,00.0,30.8,23.3,03.6,0000.0,0006.86,0001.53,0000.87
2022-04-13 18:47:00,,0818.5,5.01,0.00,21.7,20.6,00.0,30.7,23.3,03.7,0000.0,0007.50,0001.53,0000.87
2022-04-13 18:48:00,,0818.2,5.00,0.00,21.7,20.6,00.0,30.7,23.3,03.8,0000.0,0007.41,0001.46,0000.87
2022-04-13 18:49:00,,0818.2,5.00,0.00,21.7,21.1,00.0,30.8,23.4,03.6,0000.0,0007.47,0001.51,0000.87
2022-04-13 18:50:00,,0818.4,5.00,0.00,21.8,22.3,00.0,30.8,23.8,03.6,0000.0,0007.83,0001.59,0000.87
2022-04-13 18:51:00,,0818.3,4.99,0.00,22.0,23.3,00.0,30.9,24.1,03.8,0000.0,0007.94,0001.64,0000.87
2022-04-13 18:52:00,,0818.4,5.01,0.00,22.2,23.3,00.0,30.9,24.2,03.9,0000.0,0007.43,0001.66,0000.87
2022-04-13 18:53:00,,0818.5,5.00,0.00,22.2,22.9,00.0,30.9,24.2,03.8,0000.0,0004.78,0001.60,0000.87
2022-04-13 18:54:00,,0818.5,5.00,0.00,22.2,22.6,00.0,31.0,24.1,03.7,0000.0,0006.03,0001.61,0000.88
2022-04-13 18:55:00,,0818.4,4.99,0.00,22.2,22.2,00.0,31.0,24.0,03.7,0000.0,0006.41,0001.62,0000.88
2022-04-13 18:56:00,,0818.3,5.01,0.00,22.1,22.0,00.0,31.0,23.9,03.3,0000.0,0006.85,0001.60,0000.88
2022-04-13 18:57:00,,0818.1,5.00,0.00,22.1,21.8,00.0,31.0,23.9,03.3,0000.0,0006.86,0001.62,0000.89
2022-04-13 18:58:00,,0818.0,5.01,0.00,22.1,21.6,00.0,31.0,23.8,03.3,0000.0,0006.09,0001.65,0000.90
2022-04-13 18:59:00,,0818.0,5.01,0.00,22.1,21.3,00.0,31.0,23.8,02.9,0000.0,0006.35,0001.74,0000.93
